Theta_e
361 362 358 354 352 349 345 343 338 332 334 344 343 352 351 351 353 354 354 346 341 340 339 337 337 339 341 343 344 345 345 345 343 341 339 339 339 338
358 360 360 357 357 354 350 348 344 341 335 343 343 348 351 348 351 352 353 347 342 339 337 336 335 336 338 339 340 340 340 341 340 339 338 338 339 338
363 361 360 362 357 356 354 350 347 344 339 341 345 348 351 352 351 353 352 353 350 338 337 336 333 333 334 336 336 336 337 337 337 337 337 337 338 337
361 362 361 359 362 361 357 358 355 354 345 347 348 346 351 353 354 354 351 348 349 342 335 334 333 331 330 331 331 331 331 332 333 333 334 335 337 335
361 362 362 362 361 359 359 356 355 355 352 346 345 348 349 348 350 352 351 353 349 343 333 331 331 330 329 327 327 326 325 326 326 326 327 330 333 333
362 363 362 362 362 362 361 361 360 356 356 351 349 348 350 355 350 345 345 348 346 347 343 337 336 332 330 327 326 325 322 320 320 320 322 324 327 327
361 362 362 359 350 353 359 364 363 357 353 349 347 347 346 347 347 348 347 348 351 351 347 347 344 342 340 331 332 330 324 321 319 319 319 319 320 320
360 363 364 354 352 340 339 341 353 363 359 353 350 350 358 355 354 351 350 348 345 356 349 344 352 346 345 343 336 330 324 322 320 320 318 317 317 317
362 361 358 356 355 362 345 336 337 335 340 359 359 359 360 361 361 357 359 355 351 354 352 341 353 343 351 346 332 327 324 322 322 320 319 317 316 314
362 363 363 362 363 361 360 359 362 361 359 353 357 358 362 364 365 362 357 351 349 348 348 334 346 345 348 351 332 327 324 323 322 322 319 318 314 311
361 363 363 363 347 334 358 358 361 361 348 336 337 335 333 332 338 349 346 343 341 343 349 340 343 345 348 347 341 327 324 321 321 320 320 317 312 309
360 364 338 352 334 327 355 357 358 358 361 363 364 350 340 350 332 345 349 342 343 340 349 338 344 343 333 336 338 335 330 320 318 317 317 315 310 323
354 355 358 328 325 321 325 360 358 358 356 362 361 360 361 360 362 361 349 347 343 342 349 346 337 337 333 334 333 335 330 325 327 320 313 310 308 322
357 360 361 326 318 318 324 331 326 330 357 357 355 353 355 357 356 355 355 349 349 347 351 346 339 338 336 331 324 331 331 329 330 324 325 310 306 307
360 351 333 320 318 324 319 322 322 345 347 347 350 353 356 358 358 355 352 354 355 341 342 341 339 340 337 326 323 320 321 323 328 322 320 319 319 318
335 350 345 336 331 337 338 334 338 347 348 350 349 354 355 353 349 348 347 346 343 342 339 334 336 337 327 325 327 323 323 317 321 320 321 319 320 323
345 353 352 349 348 347 349 353 354 348 343 344 347 347 346 345 345 341 343 340 337 335 332 331 333 334 331 332 325 325 323 322 323 318 318 320 324 323
343 351 350 352 352 353 351 350 350 343 346 348 348 348 343 340 339 338 340 338 337 335 328 328 327 328 328 325 323 321 317 318 320 324 328 323 320 321
349 351 353 353 352 351 352 351 348 350 355 350 346 344 342 342 335 338 335 336 334 335 330 328 328 325 325 325 323 310 320 321 325 323 322 323 320 319
345 352 354 354 356 353 351 350 350 348 346 345 344 343 339 336 333 334 333 332 333 331 328 328 327 324 327 327 325 322 305 326 322 318 321 320 312 307
354 352 355 357 353 349 350 347 346 343 343 340 337 338 335 333 333 334 332 319 324 328 327 327 325 317 330 326 322 318 316 306 315 324 321 317 314 314
357 355 349 342 341 340 340 340 341 338 340 338 335 340 339 339 335 332 330 332 329 329 329 329 323 325 324 325 324 323 318 315 309 308 309 310 315 311
349 347 340 338 335 335 335 335 337 338 335 335 336 337 337 333 334 331 330 331 330 327 325 324 326 325 324 323 319 321 321 319 317 315 315 307 307 307
Wind_Speed
6 6 6 4 4 3 4 4 5 7 7 1 3 3 4 6 8 10 11 10 14 14 14 14 14 14 14 14 13 11 11 10 8 7 7 7 7 6
6 6 6 5 5 4 5 4 4 5 7 3 5 4 4 5 6 10 12 9 13 15 16 16 16 16 16 15 13 15 13 10 11 10 10 8 7 7
9 8 9 8 7 6 6 6 6 6 9 9 5 6 7 8 6 7 8 10 10 16 18 17 18 18 19 17 18 17 16 15 14 12 10 9 9 8
12 10 11 7 10 9 8 9 8 7 8 11 9 9 9 9 9 9 8 9 10 11 18 21 22 21 24 22 22 20 18 17 14 12 11 10 12 10
12 12 12 11 11 9 9 9 8 8 8 9 12 10 9 9 9 10 10 11 11 14 14 17 21 23 23 20 22 19 18 16 12 11 10 11 11 11
12 12 13 13 13 13 11 11 9 10 10 11 12 12 11 9 8 11 10 10 11 12 13 16 13 21 23 22 24 21 19 17 16 12 10 11 11 11
13 13 13 14 13 13 10 10 10 10 10 11 11 11 11 10 12 10 11 11 12 10 11 9 8 9 11 19 20 22 21 20 18 16 14 11 11 10
13 14 14 12 14 15 16 17 15 12 13 12 13 14 12 11 11 11 12 12 15 9 8 10 6 9 7 8 13 17 24 24 22 19 17 15 13 11
14 14 14 13 13 15 15 18 18 18 19 16 17 15 15 13 13 15 14 13 14 12 7 12 8 12 8 10 12 17 24 23 23 24 21 17 15 13
16 16 16 16 15 15 16 16 17 16 15 14 17 17 16 14 15 14 13 10 9 7 5 10 12 13 11 10 14 23 24 24 26 26 22 18 16 14
16 17 17 16 15 13 16 17 18 16 13 17 18 18 14 11 11 9 10 9 9 8 6 6 11 13 11 10 6 24 25 25 24 23 23 20 18 15
15 16 17 19 12 14 17 16 18 16 15 15 13 12 16 13 16 13 8 8 8 5 4 4 10 6 3 4 9 9 11 22 24 22 19 19 17 9
14 13 13 17 19 16 18 16 17 13 14 12 10 9 10 10 9 4 8 8 6 6 7 4 3 2 4 3 2 6 9 7 9 11 16 17 16 11
14 11 11 12 16 17 15 18 16 14 14 9 7 7 8 7 6 5 5 6 7 10 10 7 5 6 8 6 2 1 5 11 9 8 8 9 9 8
13 12 10 12 15 14 16 15 13 9 8 9 9 10 7 5 4 3 4 7 8 2 5 6 6 9 7 2 1 1 5 4 7 8 7 9 11 11
15 12 9 7 9 9 7 7 8 9 9 9 8 6 4 4 4 3 5 5 4 2 4 8 5 4 3 4 3 3 7 5 6 9 8 6 9 11
12 8 7 7 8 7 8 10 9 7 8 7 6 5 4 4 3 1 4 3 5 2 2 3 6 8 7 3 6 5 5 6 7 9 10 10 10 10
5 7 6 7 9 8 8 7 7 7 7 7 7 6 5 4 3 4 5 5 5 3 3 2 2 2 3 6 6 7 4 6 7 9 11 12 10 9
6 6 7 8 9 7 7 6 6 7 8 6 6 5 4 5 5 6 4 4 5 3 3 3 4 3 4 4 5 6 7 8 10 8 8 9 9 9
5 7 8 8 7 6 5 5 5 5 5 5 5 5 5 5 5 5 5 6 6 5 5 5 4 5 5 4 5 6 13 8 9 9 8 5 6 12
9 9 7 7 6 5 5 4 5 5 6 5 6 6 7 7 6 5 6 6 5 5 6 6 6 1 3 4 6 6 6 8 2 9 10 8 8 8
7 6 5 4 4 4 4 3 5 5 6 6 7 7 7 7 6 6 7 7 7 6 5 6 6 7 6 6 5 10 9 7 6 11 10 4 7 8
7 6 5 5 5 5 6 6 7 6 6 7 7 7 7 6 5 6 7 7 7 7 8 8 9 8 7 7 6 8 11 11 9 9 8 5 5 5
Wind_Direction
233 234 237 235 229 230 234 252 282 292 300 224 274 200 248 239 237 235 236 218 213 215 216 214 213 216 219 220 224 231 239 237 238 249 247 247 253 230
238 240 241 244 240 237 238 234 233 266 278 275 266 279 268 259 237 237 243 241 217 222 219 218 217 217 221 223 226 227 220 231 238 234 243 243 228 224
239 235 240 241 249 242 232 237 239 239 267 282 269 277 271 252 260 237 246 246 247 214 223 222 219 218 221 216 217 223 228 214 209 223 227 236 217 203
241 239 241 233 239 246 244 247 246 241 260 275 281 279 266 287 272 262 252 250 253 233 211 224 222 219 220 211 211 214 212 220 217 209 211 224 204 196
243 243 249 244 242 250 242 254 250 248 243 265 279 276 276 282 271 256 256 257 254 246 227 225 229 227 230 217 220 215 213 214 203 198 208 210 205 185
242 244 248 249 249 248 245 248 253 256 253 257 269 275 271 270 277 278 278 260 260 263 251 251 236 232 232 224 221 215 204 193 194 183 208 201 192 187
243 245 246 248 245 244 249 247 251 249 258 264 265 269 269 271 269 286 286 283 278 271 267 257 252 244 245 237 242 221 202 191 187 181 187 200 182 186
242 243 248 242 240 233 231 243 250 246 254 267 271 273 274 270 275 278 283 290 292 274 262 266 229 246 237 239 247 227 202 184 182 182 168 178 178 186
240 244 249 250 235 251 231 229 244 241 243 260 267 263 275 274 277 276 273 269 272 284 286 278 266 262 243 238 243 202 200 189 182 175 171 170 171 181
241 240 243 249 246 243 252 258 257 256 244 241 249 261 265 269 268 271 282 284 279 275 241 271 279 267 264 250 213 198 198 194 186 180 166 170 175 176
241 240 239 243 241 215 242 258 261 260 252 231 246 262 272 267 271 292 280 282 281 275 229 245 275 274 270 264 217 203 196 195 191 171 170 172 170 170
239 239 228 239 226 204 231 247 258 261 265 270 255 243 244 255 238 241 256 256 271 286 254 223 271 291 280 241 220 204 208 196 177 172 174 164 155 157
239 240 240 208 224 221 218 241 250 266 266 262 264 265 269 267 273 231 217 230 257 264 298 284 264 262 231 271 254 207 199 161 164 173 151 141 158 182
240 242 244 202 212 221 225 241 249 253 262 269 265 258 253 244 239 242 245 241 242 259 297 303 287 293 289 286 282 8 153 153 156 147 136 90 96 78
241 246 247 210 215 227 232 238 239 249 248 250 252 256 256 242 232 250 251 258 273 9 348 343 322 311 307 339 122 73 90 58 117 121 118 145 162 168
250 253 249 249 216 222 239 225 228 233 234 242 249 251 221 210 230 228 266 292 267 220 58 29 15 6 38 35 89 88 127 133 139 127 145 148 164 180
220 227 228 216 229 221 224 227 225 217 217 224 228 213 210 222 209 211 268 226 248 220 144 68 50 63 57 55 75 111 112 131 142 136 139 159 176 182
190 220 213 216 227 227 224 224 221 210 214 212 214 215 204 196 214 215 222 229 244 180 180 147 165 123 128 81 22 139 107 136 148 164 171 168 169 184
228 211 226 231 233 224 217 208 206 214 218 204 193 190 190 223 199 214 226 244 228 179 162 170 200 214 203 165 125 49 142 165 159 168 176 184 183 179
226 229 234 241 235 219 201 202 205 180 190 182 187 197 201 203 196 213 223 214 210 175 170 183 197 200 217 176 156 120 1 163 170 166 173 137 50 52
217 232 228 228 231 219 206 182 180 188 188 193 194 199 189 187 198 216 215 214 191 183 193 192 184 321 123 141 152 155 134 54 55 184 166 176 180 172
233 224 210 188 193 186 173 175 182 185 199 186 197 208 203 205 205 206 204 199 203 196 186 150 172 179 190 210 179 158 160 158 105 67 63 57 179 207
206 199 180 181 175 173 171 181 193 181 192 200 198 211 200 199 203 208 207 214 190 182 173 176 178 180 191 215 181 177 169 174 171 177 190 40 20 55